TimeICT,TemperatureF,Dew PointF,Humidity,Sea Level PressureIn,VisibilityMPH,Wind Direction,Wind SpeedMPH,Gust SpeedMPH,PrecipitationIn,Events,Conditions,WindDirDegrees,DateUTC
1:00 AM,64,52,55,30.07,7,East,10.4,,,,Scattered Clouds,90,2014-01-13 18:00:00
4:00 AM,60,50,61,30.08,6,East,3.5,,,,Clear,100,2014-01-13 21:00:00
6:00 AM,57.2,48.2,72,30.09,-9999.0,Calm,Calm,-,N/A,,Clear,0,2014-01-13 23:00:00
7:00 AM,58,49,65,30.14,5,East,4.6,,,,Mist,80,2014-01-14 00:00:00
7:00 AM,57.2,46.4,67,30.12,5.0,East,4.6,-,N/A,,Scattered Clouds,80,2014-01-14 00:00:00
8:00 AM,59.0,48.2,67,30.18,5.0,East,4.6,-,N/A,,Partly Cloudy,90,2014-01-14 01:00:00
9:00 AM,62.6,46.4,55,30.21,5.0,East,8.1,-,N/A,,Unknown,90,2014-01-14 02:00:00
10:00 AM,67,48,39,30.20,6,ENE,5.8,,,,Haze,70,2014-01-14 03:00:00
10:00 AM,66.2,44.6,46,30.21,5.0,ENE,10.4,-,N/A,,Unknown,60,2014-01-14 03:00:00
11:00 AM,69.8,46.4,43,30.18,5.6,ENE,8.1,-,N/A,,Partly Cloudy,60,2014-01-14 04:00:00
12:00 PM,68.0,44.6,43,30.12,6.2,NE,8.1,-,N/A,,Partly Cloudy,50,2014-01-14 05:00:00
1:00 PM,74,46,26,30.10,6,NNE,4.6,,,,Scattered Clouds,30,2014-01-14 06:00:00
1:00 PM,71.6,42.8,35,30.09,6.2,NNE,8.1,-,N/A,,Partly Cloudy,30,2014-01-14 06:00:00
2:00 PM,75.2,44.6,34,30.06,6.2,NNE,9.2,-,N/A,,Partly Cloudy,20,2014-01-14 07:00:00
3:00 PM,75.2,44.6,34,30.04,-9999.0,Variable,5.8,-,N/A,,Clear,0,2014-01-14 08:00:00
4:00 PM,77,51,29,30.02,6,NNW,4.6,,,,,340,2014-01-14 09:00:00
4:00 PM,75.2,46.4,36,30.04,-9999.0,North,4.6,-,N/A,,Clear,10,2014-01-14 09:00:00
5:00 PM,73.4,46.4,38,30.04,-9999.0,North,5.8,-,N/A,,Clear,350,2014-01-14 10:00:00
6:00 PM,71.6,48.2,43,30.04,-9999.0,North,3.5,-,N/A,,Clear,350,2014-01-14 11:00:00
7:00 PM,69,54,48,30.06,6,Calm,Calm,,,,,,2014-01-14 12:00:00
7:00 PM,68.0,50.0,52,30.06,-9999.0,NNW,1.2,-,N/A,,Clear,340,2014-01-14 12:00:00
8:00 PM,64.4,51.8,64,30.09,-9999.0,Calm,Calm,-,N/A,,Clear,0,2014-01-14 13:00:00
9:00 PM,62.6,51.8,68,30.09,-9999.0,Variable,2.3,-,N/A,,Clear,0,2014-01-14 14:00:00
10:00 PM,63,56,70,30.11,6,Calm,Calm,,,,,,2014-01-14 15:00:00